GCR7545 ZUZY-ZJSY

Flight info

Callsign GCR7545
Flight time N/A
Altitude 35100
Route IDEPO W181 DUDIT/K0850S1100 DCT WUY/K0848S1070 R339 BHY/K0850S1100 W70 PEGDU/K0850S1070 W70 NYB/K0854S1100 G221 UPRIS UPR8YA
Aircraft A320/M-SDE3GHIJ2J3J5M1RVWXYZ/LB2D1

Departure

Time 2026-05-01 14:39
Airport Zunyi Xinzhou Airport (ZUZY)

Arrival

Time N/A
Airport Sanya Phoenix International Airport (ZJSY)
Time Latitude Longitude Altitude Speed Heading
2026-05-01 14:11 27.80365 107.24825 2734 ft 0 kts 92°
2026-05-01 14:25 27.80366 107.24820 2734 ft 1 kts 78°
2026-05-01 14:25 27.80361 107.24807 2734 ft 1 kts 88°
2026-05-01 14:25 27.80363 107.24790 2734 ft 2 kts 92°
2026-05-01 14:25 27.80363 107.24779 2734 ft 0 kts 90°
2026-05-01 14:26 27.80361 107.24763 2734 ft 2 kts 64°
2026-05-01 14:26 27.80339 107.24741 2734 ft 1 kts 11°
2026-05-01 14:26 27.80333 107.24741 2734 ft 1 kts 358°
2026-05-01 14:27 27.80329 107.24741 2734 ft 0 kts
2026-05-01 14:30 27.80358 107.24743 2734 ft 5 kts
2026-05-01 14:30 27.80399 107.24744 2734 ft 6 kts
2026-05-01 14:30 27.80447 107.24747 2734 ft 7 kts
2026-05-01 14:31 27.80558 107.24753 2734 ft 8 kts
2026-05-01 14:31 27.80623 107.24756 2734 ft 9 kts 355°
2026-05-01 14:31 27.80664 107.24709 2734 ft 6 kts 277°
2026-05-01 14:31 27.80696 107.24682 2734 ft 6 kts 353°
2026-05-01 14:32 27.80745 107.24681 2734 ft 7 kts
2026-05-01 14:32 27.80799 107.24684 2734 ft 8 kts
2026-05-01 14:32 27.80861 107.24688 2734 ft 9 kts
2026-05-01 14:32 27.80927 107.24692 2734 ft 9 kts
2026-05-01 14:33 27.80999 107.24695 2734 ft 10 kts
2026-05-01 14:33 27.81076 107.24699 2734 ft 11 kts
2026-05-01 14:33 27.81157 107.24703 2735 ft 11 kts
2026-05-01 14:33 27.81242 107.24709 2735 ft 12 kts
2026-05-01 14:34 27.81330 107.24712 2735 ft 12 kts
2026-05-01 14:34 27.81421 107.24717 2735 ft 13 kts
2026-05-01 14:34 27.81515 107.24723 2735 ft 13 kts
2026-05-01 14:34 27.81610 107.24728 2735 ft 13 kts
2026-05-01 14:35 27.81707 107.24735 2735 ft 14 kts
2026-05-01 14:35 27.81762 107.24739 2735 ft 14 kts
2026-05-01 14:35 27.81783 107.24741 2735 ft 14 kts
2026-05-01 14:35 27.81883 107.24747 2735 ft 14 kts
2026-05-01 14:36 27.81984 107.24751 2735 ft 14 kts
2026-05-01 14:36 27.82089 107.24757 2735 ft 14 kts
2026-05-01 14:36 27.82192 107.24764 2735 ft 14 kts
2026-05-01 14:36 27.82275 107.24767 2735 ft 8 kts
2026-05-01 14:37 27.82332 107.24757 2735 ft 8 kts 325°
2026-05-01 14:37 27.82357 107.24693 2735 ft 7 kts 270°
2026-05-01 14:37 27.82327 107.24661 2736 ft 3 kts 181°
2026-05-01 14:37 27.82325 107.24661 2735 ft 0 kts 180°
2026-05-01 14:38 27.82252 107.24660 2735 ft 38 kts 181°
2026-05-01 14:38 27.81735 107.24635 2735 ft 105 kts 183°
2026-05-01 14:38 27.80806 107.24587 2735 ft 159 kts 184°
2026-05-01 14:39 27.79669 107.24481 3176 ft 164 kts 182°
2026-05-01 14:39 27.78532 107.24362 3767 ft 165 kts 182°
2026-05-01 14:39 27.77368 107.24259 4349 ft 170 kts 182°
2026-05-01 14:39 27.76171 107.24162 4916 ft 173 kts 182°
2026-05-01 14:40 27.74987 107.24070 5525 ft 172 kts 182°
2026-05-01 14:40 27.73777 107.23981 6145 ft 170 kts 181°
2026-05-01 14:40 27.72609 107.24156 6761 ft 169 kts 168°
2026-05-01 14:40 27.71456 107.24551 7144 ft 182 kts 167°
2026-05-01 14:41 27.70184 107.24992 7382 ft 202 kts 168°
2026-05-01 14:41 27.68763 107.25472 7729 ft 219 kts 169°
2026-05-01 14:41 27.67225 107.25982 8089 ft 237 kts 169°
2026-05-01 14:41 27.65581 107.26523 8440 ft 254 kts 170°
2026-05-01 14:42 27.63828 107.27094 8873 ft 267 kts 170°
2026-05-01 14:42 27.62005 107.27693 9470 ft 274 kts 171°
2026-05-01 14:42 27.60161 107.28297 10058 ft 279 kts 172°
2026-05-01 14:42 27.58226 107.28919 10479 ft 292 kts 172°
2026-05-01 14:43 27.56220 107.29557 10770 ft 308 kts 171°
2026-05-01 14:43 27.54090 107.30235 11051 ft 325 kts 170°
2026-05-01 14:43 27.51851 107.30952 11321 ft 341 kts 170°
2026-05-01 14:43 27.49516 107.31706 11599 ft 355 kts 170°
2026-05-01 14:44 27.47092 107.32489 12035 ft 363 kts 169°
2026-05-01 14:44 27.42162 107.34084 13058 ft 372 kts 169°
2026-05-01 14:44 27.39651 107.34894 13549 ft 377 kts 168°
2026-05-01 14:45 27.37072 107.35727 14089 ft 380 kts 169°
2026-05-01 14:45 27.31988 107.37367 15189 ft 382 kts 168°
2026-05-01 14:45 27.29418 107.38192 15699 ft 384 kts 168°
2026-05-01 14:46 27.26831 107.39024 16199 ft 387 kts 168°
2026-05-01 14:46 27.21594 107.40707 17190 ft 390 kts 168°
2026-05-01 14:46 27.19000 107.41537 17655 ft 391 kts 167°
2026-05-01 14:47 27.16335 107.42392 18084 ft 394 kts 168°
2026-05-01 14:47 27.13668 107.43246 18514 ft 397 kts 168°
2026-05-01 14:47 27.11017 107.44096 18940 ft 400 kts 168°
2026-05-01 14:48 27.05604 107.45827 19773 ft 405 kts 168°
2026-05-01 14:48 27.02888 107.46693 20173 ft 408 kts 168°
2026-05-01 14:48 26.97358 107.48461 20974 ft 413 kts 168°
2026-05-01 14:49 26.91778 107.50240 21746 ft 419 kts 168°
2026-05-01 14:49 26.86122 107.52041 22534 ft 423 kts 168°
2026-05-01 14:50 26.81311 107.53567 23153 ft 428 kts 168°
2026-05-01 14:50 26.74581 107.55702 23979 ft 435 kts 168°
2026-05-01 14:51 26.71647 107.56634 24345 ft 437 kts 168°
2026-05-01 14:51 26.65745 107.58508 25043 ft 442 kts 168°
2026-05-01 14:52 26.59801 107.60392 25710 ft 447 kts 168°
2026-05-01 14:52 26.56769 107.61354 25993 ft 450 kts 168°
2026-05-01 14:52 26.50713 107.63274 26690 ft 452 kts 168°
2026-05-01 14:53 26.47679 107.64235 27114 ft 451 kts 168°
2026-05-01 14:53 26.44657 107.65192 27526 ft 450 kts 168°
2026-05-01 14:53 26.41669 107.66147 27893 ft 450 kts 168°
2026-05-01 14:53 26.38622 107.67127 28240 ft 450 kts 168°
2026-05-01 14:54 26.35619 107.68086 28559 ft 450 kts 168°
2026-05-01 14:54 26.32609 107.69044 28881 ft 451 kts 168°
2026-05-01 14:54 26.29567 107.70011 29220 ft 451 kts 168°
2026-05-01 14:54 26.26552 107.70963 29553 ft 450 kts 168°
2026-05-01 14:55 26.23529 107.71919 29871 ft 451 kts 168°
2026-05-01 14:55 26.20521 107.72868 30178 ft 451 kts 168°
2026-05-01 14:55 26.17472 107.73829 30486 ft 451 kts 168°
2026-05-01 14:55 26.14448 107.74779 30785 ft 451 kts 168°
2026-05-01 14:56 26.11430 107.75729 31083 ft 452 kts 168°
2026-05-01 14:56 26.08388 107.76685 31362 ft 452 kts 168°
2026-05-01 14:56 26.05360 107.77634 31631 ft 453 kts 168°
2026-05-01 14:56 26.02338 107.78584 31903 ft 453 kts 169°
2026-05-01 14:57 25.99268 107.79547 32187 ft 453 kts 169°
2026-05-01 14:57 25.93165 107.81460 32752 ft 454 kts 169°
2026-05-01 14:57 25.90079 107.82427 33075 ft 453 kts 169°
2026-05-01 14:58 25.87028 107.83381 33397 ft 452 kts 169°
2026-05-01 14:58 25.83988 107.84329 33645 ft 453 kts 169°
2026-05-01 14:58 25.80945 107.85277 33830 ft 454 kts 169°
2026-05-01 14:58 25.77898 107.86227 34015 ft 456 kts 169°
2026-05-01 14:59 25.74811 107.87189 34178 ft 458 kts 169°
2026-05-01 14:59 25.71746 107.88146 34386 ft 459 kts 169°
2026-05-01 14:59 25.68633 107.89118 34607 ft 459 kts 169°
2026-05-01 14:59 25.65589 107.90067 34818 ft 459 kts 169°
2026-05-01 15:00 25.59397 107.91999 35017 ft 461 kts 169°
2026-05-01 15:00 25.56281 107.92972 35024 ft 461 kts 168°
2026-05-01 15:01 25.50107 107.94894 35028 ft 461 kts 169°
2026-05-01 15:01 25.43838 107.96471 35023 ft 456 kts 175°
2026-05-01 15:02 25.37504 107.97330 35027 ft 456 kts 179°
2026-05-01 15:02 25.31158 107.98095 35035 ft 455 kts 179°
2026-05-01 15:03 25.24825 107.98860 35050 ft 456 kts 179°
2026-05-01 15:03 25.18499 107.99629 35052 ft 456 kts 178°
2026-05-01 15:04 25.12169 108.00401 35049 ft 456 kts 178°
2026-05-01 15:04 25.05855 108.01169 35041 ft 457 kts 178°
2026-05-01 15:05 24.99505 108.01942 35032 ft 457 kts 178°
2026-05-01 15:05 24.93139 108.02716 35027 ft 457 kts 178°
2026-05-01 15:06 24.86795 108.03487 35029 ft 457 kts 178°
2026-05-01 15:06 24.80462 108.04255 35030 ft 456 kts 178°
2026-05-01 15:07 24.74112 108.05025 35028 ft 456 kts 178°
2026-05-01 15:07 24.67770 108.05794 35028 ft 456 kts 178°
2026-05-01 15:08 24.61477 108.06554 35024 ft 457 kts 178°
2026-05-01 15:08 24.55135 108.07322 35023 ft 457 kts 178°
2026-05-01 15:09 24.48806 108.08086 35036 ft 456 kts 178°
2026-05-01 15:09 24.42474 108.08855 35035 ft 456 kts 178°
2026-05-01 15:10 24.36168 108.09624 35031 ft 456 kts 178°
2026-05-01 15:10 24.26656 108.10776 35028 ft 455 kts 178°
2026-05-01 15:11 24.17181 108.11927 35025 ft 454 kts 178°
2026-05-01 15:12 24.10878 108.12688 35027 ft 455 kts 178°
2026-05-01 15:12 24.01378 108.13840 35026 ft 455 kts 179°
2026-05-01 15:14 23.85634 108.15741 35021 ft 452 kts 178°
2026-05-01 15:14 23.76200 108.16129 35016 ft 447 kts 185°
2026-05-01 15:15 23.63730 108.15998 35015 ft 446 kts 186°
2026-05-01 15:16 23.51254 108.15878 35013 ft 444 kts 186°
2026-05-01 15:18 23.35788 108.15730 34995 ft 441 kts 186°
2026-05-01 15:19 23.23403 108.15614 34992 ft 441 kts 185°
2026-05-01 15:19 23.14149 108.15527 34985 ft 439 kts 186°
2026-05-01 15:20 23.04994 108.15442 34987 ft 438 kts 186°
2026-05-01 15:21 22.98851 108.15385 34989 ft 436 kts 185°
2026-05-01 15:21 22.92741 108.15327 34995 ft 437 kts 186°
2026-05-01 15:22 22.83573 108.15247 35008 ft 436 kts 186°
2026-05-01 15:22 22.77466 108.15193 35010 ft 436 kts 186°
2026-05-01 15:23 22.71380 108.15137 35015 ft 435 kts 186°
2026-05-01 15:23 22.65316 108.15305 35015 ft 440 kts 176°
2026-05-01 15:24 22.59307 108.17213 35021 ft 453 kts 159°
2026-05-01 15:24 22.54029 108.21022 35022 ft 464 kts 141°
2026-05-01 15:25 22.49694 108.26278 35028 ft 469 kts 133°
2026-05-01 15:25 22.45542 108.31734 35027 ft 469 kts 133°
2026-05-01 15:26 22.41371 108.37152 35028 ft 469 kts 134°
2026-05-01 15:26 22.37174 108.42562 35027 ft 468 kts 134°
2026-05-01 15:27 22.32981 108.47951 35031 ft 469 kts 134°
2026-05-01 15:28 22.26674 108.56043 35032 ft 469 kts 134°
2026-05-01 15:28 22.22460 108.61443 35033 ft 469 kts 133°
2026-05-01 15:29 22.16137 108.69565 35033 ft 468 kts 134°
2026-05-01 15:30 22.07724 108.80350 35039 ft 469 kts 134°
2026-05-01 15:31 21.95072 108.96561 35036 ft 470 kts 134°
2026-05-01 15:32 21.86621 109.07342 35034 ft 468 kts 134°
2026-05-01 15:34 21.74020 109.23470 35031 ft 468 kts 133°